Regional Weather Roundup
Issued by NWS Wakefield, VA

Home | Current Version | Previous Version | Text Only | Print | Product List | Glossary Off
Versions: 1 2 3 4 5 6 7 8 9 10 11 12 13 14 15 16 17 18 19 20 21 22 23 24 25 26 27

000
ASUS41 KAKQ 290215
RWRAKQ

REGIONAL WEATHER ROUNDUP
NATIONAL WEATHER SERVICE WAKEFIELD VA
1000 PM EDT SAT MAY 28 2016

Note: "fair" indicates few or no clouds below 12,000 feet with no
significant weather and/or obstructions to visibility. * = Denotes
station may not report precipitation (e.g., rain,snow,etc.),
thunder or fog.

VAZ042-051-052>054-056-290300-
NORTHERN VIRGINIA

CITY           SKY/WX    TMP DP  RH WIND       PRES   REMARKS
WASH NATIONAL  MOCLDY    77  64  64 S8        30.14R
DULLES         MOCLDY    76  64  66 SE7       30.14R
FORT BELVOIR   FAIR      72  65  80 SE3       30.14R
QUANTICO       FAIR      74  67  78 S6        30.14R
FREDERICKSBRG* FAIR      75  61  63 S6        30.14R
STAFFORD*      FAIR      70  62  74 SE3       30.18R
WARRENTON      FAIR      75  59  57 S3        30.14R
CULPEPER*      FAIR      70  66  88 CALM      30.15R
MANASSAS*      CLEAR     73  66  78 CALM      30.13R
LEESBURG*      FAIR      81  68  65 S8        30.14R
WINCHESTER     FAIR      73  63  68 CALM      30.13R
FRONT ROYAL*   FAIR      73  63  68 CALM      30.13R
LURAY*         FAIR      70  61  73 SW3       30.16R
$$

VAZ048-049-060>072-079>083-290300-
CENTRAL AND SOUTH CENTRAL VIRGINIA

CITY           SKY/WX    TMP DP  RH WIND       PRES   REMARKS
RICHMOND       MOCLDY    71  64  78 E7        30.15R
CHESTERFIELD*  FAIR      70  54  56 CALM      30.17R
PETERSBURG*    FAIR      66  66 100 CALM      30.15R
HANOVER        FAIR      67  58  72 CALM      30.17R
TAPPAHANNOCK*  FAIR      71  59  66 CALM      30.17S
QUINTON*       FAIR      71  64  79 SE3       30.16R
CHARLOTTSVILLE FAIR      72  62  71 S7        30.15R
GORDONSVILLE*  FAIR      69  65  90 CALM      30.15R
ORANGE*        FAIR      70  64  83 CALM      30.17R
LOUISA*        FAIR      75  64  69 CALM      30.15R
BUMPASS*       FAIR      68  65  89 CALM      30.15S
FARMVILLE*     FAIR      68  63  83 CALM      30.14S
CREWE*         FAIR      65  65 100 CALM      30.15S
FORT PICKETT*  NOT AVBL
CHASE CITY*    FAIR      69  66  90 CALM      30.15R
CLARKSVILLE*   FAIR      72  66  83 CALM      30.14R
SOUTH HILL*    FAIR      68  64  85 CALM      30.20S
LAWRENCEVILLE* FAIR      71  63  75 CALM      30.15R
EMPORIA*       FAIR      70  64  83 E5        30.16R
$$

VAZ088>098-290300-
SOUTHEAST VIRGINIA

CITY           SKY/WX    TMP DP  RH WIND       PRES   REMARKS
NORFOLK        FAIR      71  64  78 E3        30.16S
VIRGINIA BEACH MOCLDY    73  63  70 CALM      30.16R
NORFOLK NAVAL  MOCLDY    72  64  76 E3        30.18R
WEST POINT*    FAIR      70  61  74 E6        30.17S
SALUDA*        FAIR      70  64  81 SE3       30.16S
NEWPORT NEWS   FAIR      71  61  70 E6        30.16R
LANGLEY AFB    FAIR      72  64  76 SE6       30.16S
FORT EUSTIS    FAIR      73  58  57 SE6       30.14R
WILLIAMSBURG*  FAIR      72  66  83 CALM      30.17R
HR EXEC AP*      N/A     63  59  88 CALM      30.18S
FRANKLIN*      FAIR      73  62  68 SE3       30.16R
US460-WAKEFLD  FAIR      73  62  68 E3        30.15R
$$

VAZ020-022-025-037-045-290300-
WEST CENTRAL AND SOUTHWEST VIRGINIA

CITY           SKY/WX    TMP DP  RH WIND       PRES   REMARKS
STAUNTON*      FAIR      69  62  78 CALM      30.19R
WAYNESBORO*    FAIR      70  59  67 S3        30.19R
HOT SPRINGS VA FAIR      65  58  77 S9        30.28S
LYNCHBURG      FAIR      68  62  81 CALM      30.18R
DANVILLE       FAIR      71  61  70 NE3       30.15S
SOUTH BOSTON*  FAIR      69  63  83 CALM      30.15R
MARTINSVILLE   FAIR      63  61  94 CALM      30.19S
ROANOKE        FAIR      75  60  59 E3        30.19R
BLACKSBURG     FAIR      67  60  75 CALM      30.25S
DUBLIN*        FAIR      70  63  78 CALM      30.24R
MARION*        FAIR      68  58  69 NE5       30.25R
HILLSVILLE*    FAIR      67  58  72 CALM      30.24R
RICHLANDS*     FAIR      70  64  79 SE6       30.21S
WISE*          FAIR      68  46  45 CALM      30.22R
ABINGDON*      FAIR      73  57  57 E5        30.19R
$$

MDZ021>025-VAZ099-100-290300-
SOUTHERN MARYLAND AND THE DELMARVA PENINSULA

CITY           SKY/WX    TMP DP  RH WIND       PRES   REMARKS
PATUXENT RIVER CLEAR     70  60  70 S6        30.16R
BAY BRIDGE APT CLEAR     75  61  60 S9        30.15R
LEONARDTOWN    CLEAR     70  61  73 SE5       30.18R
DOVER          CLEAR     75  67  75 S7        30.15R
GEORGETOWN     CLOUDY    70  56  61 S7        30.18R
EASTON         CLEAR     74  65  71 S7        30.20R
CAMBRIDGE      PTCLDY    68  61  77 S3        30.16S
SALISBURY      CLEAR     65  59  81 SE3       30.18R
OCEAN CITY     CLEAR     67  63  87 VRB5      30.19R
WALLOPS ISLAND FAIR      66  63  90 S6        30.19S
ACCOMACK*      FAIR      68  63  83 SE7       30.18S
$$

NCZ012>017-030>032-290300-
NORTH CENTRAL AND EASTERN NORTH CAROLINA

CITY           SKY/WX    TMP DP  RH WIND       PRES   REMARKS
ROANOKE RAPIDS FAIR      73  64  73 E5        30.14S
RALEIGH        CLOUDY    79  64  60 CALM      30.14R
ELIZABETH CITY PTCLDY    72  67  84 NE3       30.16R
AHOSKIE*       MOCLDY    72  63  72 E3        30.16R
EDENTON*       PTCLDY    72  67  83 E5        30.16R
CURRITUCK*     PTCLDY    73  69  86 CALM      30.17R
KILL DEVIL HLS PTCLDY    71  67  89 E3        30.14S
MANTEO         NOT AVBL
CAPE HATTERAS  PTCLDY    74  71  91 E5        30.14R
TARBORO*       FAIR      74  67  79 CALM      30.16R
GOLDSBORO      NOT AVBL
WASHINGTON     PTCLDY    73  68  87 E3        30.14S
GREENVILLE     PTCLDY    75  70  83 SE6       30.16R
NEW BERN       CLEAR     74  69  85 NE6       30.14R
WILMINGTON     CLOUDY    75  70  84 E9        30.10R
$$

VAZ048-290300-
ELSEWHERE

CITY           SKY/WX    TMP DP  RH WIND       PRES   REMARKS
HARRISBURG PA  CLOUDY    80  66  62 S7        30.11R
BALTIMORE      PTCLDY    74  54  49 S5        30.14R
ANNAPOLIS      CLEAR     73  64  73 S13       30.15R
ANDREWS AFB    FAIR      72  62  71 S8        30.14R
PHILADELPHIA   PTCLDY    77  58  51 S8        30.15R
HENDERSON NC   CLOUDY    69  63  82 CALM      30.15R
GREENSBORO     CLOUDY    76  55  48 NE3       30.15R
ROCKY MOUNT    PTCLDY    75  65  70 E3        30.14R
$$

VAZ100-290300-
MARINE

STATION/POSITION TIME  TEMP    WIND        PRES    WAVE   SWELL
                       AIR SEA DIR/SP/G            HT/PER HT/PER
                 (UTC) (F)     (DEG/KT/KT) (MB)    (FT/S) (FT/S)
BRANDYWINE LGT   0100                      1021.1
CAPE MAY NJ      0100                      1021.1
LEWES DE         0100                      1021.3
15NM E FENWICK I 0150   66 63              1022.2R   2/ 7
OCEAN-CITY-INLET 0100                      1022.2
WACHAPREAGUE VA  0100                      1021.6
THOMAS POINT MD  0200   71 69  180/ 17/ 18 1022.2R
GOOSES REEF MD   0200   70 68  180/ 12/ 14 1022.1R   1/ 3
COVE POINT MD    0100                      1021.7
SOLOMONS ISLAND  0100   72 68                N/A
BISHOPS HEAD MD  0100                      1021.4
PINEY POINT MD   0130          160/  9/ 10   N/A
POTOMAC MD       0200   71 70  180/  8/ 10 1020.4R   1
CAMBRIDGE MD     0100                      1020.3
LEWISETTA VA     0100                      1020.8
RAPPAHANNOCK LGT 0100                      1022.2
STINGRAY PT      0200   71 70  150/  8/ 10 1021.9R   1
YORK RVR RNG VA  0100                      1020.6
YORKTOWN VA      0100                      1020.9
JAMESTOWN VA     0200   75 74  110/  8/ 10   N/A     0
DOMINION TERM VA 0100                      1021.1
KIPTOPEKE VA     0100      71                N/A
CHES BAY BRIDGE  0100                      1021.3
CAPE HENRY VA    0106   70                   N/A
CHESAPEAKE LGHT  0100   73     110/  9/ 10 1022.0R
WILLOUBY STN VA  0100                      1022.2
CAPE HENRY BUOY  0112      69                N/A     3/ 8
1ST LANDING BUOY 0200   70 69   90/  4/  6 1021.5R   1/ 5
CAPE CHARLES BUO 0126      68                N/A     2/ 8   2/ 8
OFFSHORE WE BUOY 0121      70                N/A     3/ 8   3/ 8
64NM E OF VA BCH 0150   69 67   70/  4/  6 1021.5R   4/ 8   3/ 8
DUCK PIER NC     0100                      1020.1
44100 DUCK FRF   0124      69                N/A     3/ 8
44056 DUCK FRF   0111      67                N/A     3/ 7
OREGON INLET NC  0100                      1020.5
HATTERAS NC      0100                      1019.7
DIAMOND SHLS NC  0150   78 78  130/ 14/ 16 1020.2R   4/ 8   3/ 8
CAPE LOOKOUT NC  0200   75  C1F1C2F2C3F3C4F4C5F5C6F6C7F7C8M1C9!



USA.gov is the U.S. government's official web portal to all federal, state and local government web resources and services.